LCS 1

Last updated on Fri Dec 29 2023 00:03:35 GMT+0000 (Coordinated Universal Time)

1 01361U 65034C 23361.83186027 -.00000016 00000+0 -31946-2 0 9992 2 01361 32.1360 159.5200 0004766 101.2953 258.8080 9.89304583120524
UTC large
Height (km)
Speed (km/s)
/
Latitude / Longitude
Inclination (degrees)
Orbital Period (minutes)
Azimuth
Elevation
Range (km)
Doppler Factor

Next 0 passes for location: London (51.5072 / 0.1276)

Sorry there are no passes over London.